Grand Forks AFB, ND

2:21 PM CDT on July 24, 2017 (GMT -0500)
Grand Forks Air Force Base

Weather History for KRDR - August, 2013

Change the Weather History Date:

Friday, August 23, 2013

  Actual Average Record
Temperature  
Mean Temperature 67 °F -  
Max Temperature 84 °F 78 °F 91 °F (2011)
Min Temperature 51 °F 54 °F 42 °F (2004)
Cooling Degree Days 2    
Growing Degree Days 17 (Base 50)    
Moisture  
Dew Point 54 °F    
Average Humidity 66    
Maximum Humidity 88    
Minimum Humidity 38    
Precipitation  
Precipitation 0.00 in - - ()
Sea Level Pressure  
Sea Level Pressure 30.03 in    
Wind  
Wind Speed 6 mph (South)    
Max Wind Speed 18 mph    
Max Gust Speed 25 mph    
Visibility 10 miles    
Events Rain    
Averages and records for this station are not official NWS values.
T = Trace of Precipitation, MM = Missing Value Source: NWS Daily Summary

Daily Weather History Graph

Daily Weather History Graph

Search for Another Location

Airport or City:

Trip Planner

Search our weather history database for the weather conditions in past years. The results will help you decide how hot, cold, wet, or windy it might be!

Date:

Astronomy

Aug. 23, 2013 Rise Set
Actual Time 6:35 AM CDT 8:27 PM CDT
Civil Twilight 6:02 AM CDT 9:00 PM CDT
Nautical Twilight 5:21 AM CDT 9:40 PM CDT
Astronomical Twilight 4:36 AM CDT 10:25 PM CDT
Moon 9:26 PM CDT (8/23) 9:50 AM CDT (8/23)
Length of Visible Light 14h 57m
Length of Day
13h 51m
Waning Gibbous, 91% of the Moon is Illuminated
Aug 23
Waning Gibbous
Aug 28
Last Quarter
Sep 5
New
Sep 12
First Quarter
Sep 19
Full

Hourly Weather History & Observations

Time (CDT) Temp. Heat Index Dew Point Humidity Pressure Visibility Wind Dir Wind Speed Gust Speed Precip Events Conditions
12:13 AM 53.6 °F - 48.2 °F 82% 30.12 in 10.0 mi SW 3.5 mph - N/A   Clear
12:29 AM 53.6 °F - 48.2 °F 82% 30.12 in 10.0 mi SW 3.5 mph - N/A   Light Drizzle
12:33 AM 51.8 °F - 48.2 °F 88% 30.12 in 10.0 mi SSW 3.5 mph - N/A   Clear
12:58 AM 54.3 °F - 47.7 °F 78% 30.14 in 10.0 mi SW 3.5 mph - 0.00 in   Clear
1:21 AM 53.6 °F - 48.2 °F 82% 30.11 in 10.0 mi Calm Calm - N/A Rain Light Rain
1:30 AM 55.4 °F - 48.2 °F 77% 30.11 in 10.0 mi SW 2.3 mph - N/A   Mostly Cloudy
1:58 AM 56.3 °F - 49.1 °F 77% 30.12 in 10.0 mi SW 4.6 mph - 0.00 in   Overcast
2:58 AM 55.6 °F - 47.8 °F 75% 30.12 in 10.0 mi South 4.6 mph - N/A   Mostly Cloudy
3:58 AM 55.8 °F - 48.6 °F 77% 30.11 in 10.0 mi SSW 4.6 mph - N/A   Scattered Clouds
4:58 AM 52.7 °F - 47.3 °F 82% 30.10 in 10.0 mi South 2.3 mph - N/A   Scattered Clouds
5:58 AM 52.2 °F - 46.9 °F 82% 30.10 in 10.0 mi SSE 2.3 mph - N/A   Clear
6:58 AM 53.4 °F - 47.5 °F 80% 30.10 in 10.0 mi South 2.3 mph - N/A   Clear
7:58 AM 59.5 °F - 50.2 °F 71% 30.09 in 10.0 mi South 5.8 mph - N/A   Clear
8:58 AM 64.8 °F - 51.6 °F 62% 30.09 in 10.0 mi SSE 5.8 mph - N/A   Clear
9:58 AM 70.9 °F - 52.3 °F 52% 30.06 in 10.0 mi SSE 8.1 mph - N/A   Clear
10:58 AM 76.6 °F - 50.0 °F 39% 30.05 in 10.0 mi SSE 10.4 mph - N/A   Clear
11:58 AM 79.3 °F - 51.8 °F 38% 30.04 in 10.0 mi SSE 16.1 mph - N/A   Clear
12:58 PM 80.8 °F 80.6 °F 54.9 °F 41% 30.01 in 10.0 mi South 16.1 mph - N/A   Partly Cloudy
1:58 PM 80.6 °F 81.6 °F 61.5 °F 52% 30.00 in 10.0 mi SSE 16.1 mph - N/A   Clear
2:58 PM 82.6 °F 83.6 °F 62.6 °F 51% 29.97 in 10.0 mi SSE 17.3 mph 23.0 mph N/A   Clear
3:58 PM 82.4 °F 83.7 °F 63.7 °F 53% 29.95 in 10.0 mi SSE 18.4 mph 24.2 mph N/A   Partly Cloudy
4:58 PM 82.9 °F 83.8 °F 62.4 °F 50% 29.94 in 10.0 mi South 18.4 mph 25.3 mph N/A   Clear
5:58 PM 83.1 °F 83.7 °F 61.3 °F 48% 29.93 in 10.0 mi South 17.3 mph - N/A   Partly Cloudy
6:58 PM 82.6 °F 83.1 °F 61.3 °F 48% 29.90 in 10.0 mi SSE 16.1 mph - N/A   Clear
7:58 PM 78.3 °F - 60.6 °F 54% 29.89 in 10.0 mi SSE 10.4 mph - N/A   Clear
8:58 PM 75.9 °F - 61.0 °F 60% 29.89 in 10.0 mi South 9.2 mph - N/A   Clear
9:58 PM 74.7 °F - 62.8 °F 66% 29.90 in 10.0 mi SSE 8.1 mph - N/A   Clear
10:58 PM 73.4 °F - 65.1 °F 75% 29.88 in 10.0 mi SSE 6.9 mph - N/A   Clear
11:58 PM 71.8 °F - 65.8 °F 81% 29.88 in 10.0 mi SSE 5.8 mph - N/A   Clear